SCP
0 0 0 0 0 0 0 0 0 0 0 0 0 0 0 0 0 0 0 0 0 0 0 0 0 0 0 0 0 0 0 0 0 0 0 0 0 0 0 0 0 0 0
0 0 0 0 0 0 0 0 0 0 0 0 0 0 0 0 0 0 0 0 0 0 0 0 0 0 0 0 0 0 0 0 0 0 0 0 0 0 0 0 0 0 0
0 0 0 0 0 0 0 0 0 0 0 0 0 0 0 0 0 0 0 0 0 0 0 0 0 0 0 0 -0 0 0 0 0 0 0 0 0 0 0 0 0 0 0
0 0 0 0 0 0 0 0 0 0 0 0 0 0 0 0 0 0 0 0 0 0 0 0 0 0 0 0 0 0 0 0 0 0 0 0 0 0 0 0 0 0 0
0 0 0 0 0 0 0 0 0 0 0 0 0 0 0 0 0 0 0 0 0 0 0 0 0 0 0 0 0 0 0 0 0 0 0 0 0 0 0 0 0 0 0
0 0 0 0 0 0 0 0 0 0 0 0 0 0 0 0 0 0 0 0 0 0 0 0 0 0 0 0 0 0 0 0 0 0 0 0 0 0 0 0 0 0 0
0 0 0 0 0 0 0 0 0 0 0 0 0 0 0 0 0 0 0 0 0 0 0 0 0 0 0 0 0 0 0 0 0 0 0 0 0 0 0 0 0 0 0
0 0 0 0 0 0 0 0 0 0 0 0 0 0 0 0 0 0 0 0 0 0 0 0 0 0 0 0 0 0 0 0 0 0 0 0 0 0 0 0 0 0 0
0 0 0 0 0 0 0 0 0 0 0 0 0 0 0 0 0 0 0 0 0 0 0 0 0 0 0 0 0 0 0 0 0 0 0 0 0 0 0 0 0 0 0
0 0 0 0 0 0 0 0 0 0 0 0 0 0 0 0 0 0 0 0 0 0 0 0 0 0 0 0 0 0 0 0 0 0 0 0 0 0 0 0 0 0 0
0 0 0 0 0 0 0 0 0 0 0 0 0 0 0 0 0 0 0 0 0 0 0 0 0 0 0 0 0 0 0 0 0 0 0 0 0 0 0 0 0 0 0
0 0 0 0 0 0 0 0 0 0 0 0 0 0 0 0 0 0 0 0 0 0 0 0 0 0 0 0 0 0 0 0 0 0 0 0 0 0 0 0 0 0 0
0 0 0 0 0 0 0 0 0 0 0 0 0 0 0 0 0 0 0 0 0 -0 -0 0 0 0 0 0 0 0 0 0 0 0 0 0 0 0 0 0 0 0 0
0 0 0 0 0 0 0 0 0 0 0 0 0 0 0 0 0 0 0 0 0 0 0 0 0 0 0 0 0 0 0 0 0 0 0 0 0 0 0 0 0 0 0
0 0 0 0 0 0 0 0 0 0 0 0 0 0 0 0 0 0 0 0 0 0 0 0 0 0 0 0 0 0 0 0 0 0 0 0 0 0 0 0 0 0 0
0 0 0 0 0 -0 0 0 0 0 0 0 0 0 0 0 0 0 0 0 0 0 0 0 0 0 0 0 0 0 0 0 0 0 0 0 0 0 0 0 0 0 0
0 0 0 0 0 0 -0 -0 -0 -0 0 0 0 0 0 0 0 0 0 0 0 0 0 0 0 0 0 0 0 0 0 0 0 0 0 0 0 0 0 0 0 0 0
0 0 0 0 -0 0 -0 -0 -0 -0 -0 -0 -0 -0 0 0 0 0 0 0 0 0 0 0 0 0 0 0 0 0 0 0 0 0 0 0 0 0 0 0 0 0 0
0 0 -0 -0 -0 -0 -0 -0 -0 -0 -0 0 0 -0 -0 -0 0 0 0 0 0 0 0 0 0 0 0 0 0 0 0 0 0 0 0 0 0 0 0 0 0 0 0
0 -0 -0 -0 -0 -0 -0 -0 -0 -0 -0 0 0 0 0 0 0 0 0 0 0 0 0 0 0 0 0 0 0 0 0 0 0 0 0 0 0 0 0 0 0 0 0
0 0 0 -0 -0 -0 -0 -0 -0 -0 -0 -0 -0 0 0 0 0 0 0 0 0 0 0 0 0 0 0 0 0 0 0 0 0 0 0 0 0 0 0 0 0 0 0
0 0 0 0 0 0 0 0 0 0 0 0 0 0 0 0 0 0 0 0 0 0 0 0 0 0 0 0 0 0 0 0 0 0 0 0 0 0 0 0 0 0 0
0 0 0 0 0 0 -0 0 0 0 0 0 0 0 0 0 0 0 0 0 0 0 0 0 0 0 0 0 0 0 0 0 0 0 0 0 0 0 0 0 0 0 0
0 0 0 0 0 0 -0 -0 0 0 0 0 0 0 0 0 0 0 0 0 0 0 0 0 0 0 0 0 0 0 0 0 0 0 0 0 0 0 0 0 0 0 0
0 0 0 0 0 0 -0 -0 0 0 0 0 0 0 0 0 0 0 0 0 0 0 0 0 0 0 0 0 0 0 0 0 0 0 0 0 0 0 0 0 0 0 0
0 0 0 0 0 0 -0 0 0 0 0 0 0 0 0 0 0 0 0 0 0 0 0 0 0 0 0 0 0 0 0 0 0 0 0 0 0 0 0 0 0 0 0
Wind_Speed_500mb
46 49 49 48 48 44 42 41 40 36 37 38 37 36 35 33 30 28 26 24 25 25 24 26 26 25 25 24 26 27 26 34 31 33 27 24 27 30 31 32 33 34 39
49 50 49 53 51 48 44 40 39 41 41 43 42 41 40 39 37 34 33 30 28 28 26 27 28 29 28 27 25 19 22 27 24 24 23 24 21 24 28 26 35 41 42
37 44 47 49 49 52 50 44 42 44 46 48 49 48 47 46 43 40 38 36 35 32 30 29 30 30 29 25 20 23 23 34 27 32 26 26 25 24 22 36 36 34 37
37 39 44 47 49 56 51 49 46 47 46 49 52 54 55 54 51 48 46 43 41 37 34 32 32 31 30 27 23 29 30 36 34 35 24 20 20 22 27 29 26 28 28
30 37 39 40 41 45 48 49 47 47 49 52 53 54 57 58 58 56 54 52 50 44 40 38 37 35 33 29 33 33 29 31 27 31 25 24 27 28 31 29 28 29 27
26 28 29 34 38 43 45 48 44 46 52 52 54 57 59 61 61 62 62 61 59 52 48 46 43 40 38 36 37 38 31 39 39 33 27 32 31 33 30 29 28 26 26
25 24 19 19 22 27 29 43 42 42 46 51 54 59 65 66 67 67 68 67 66 62 58 55 51 47 44 43 43 42 31 38 43 36 30 30 33 32 31 30 27 26 25
21 21 23 25 24 27 27 33 39 42 43 44 52 58 62 63 66 65 69 76 73 69 67 62 58 55 51 50 49 47 43 38 44 37 37 27 28 31 33 33 33 30 28
20 24 24 26 28 29 34 35 36 37 43 45 47 49 27 19 35 30 30 47 66 76 75 71 67 62 59 57 54 53 51 51 48 46 47 33 32 33 34 34 34 33 31
19 18 20 25 30 34 35 38 37 39 39 43 48 53 57 64 70 68 61 54 48 45 53 68 72 69 65 63 60 57 56 55 56 58 63 47 40 37 36 35 34 33 33
25 23 23 23 24 27 31 36 39 40 43 46 46 47 53 59 63 72 81 77 73 70 69 65 59 61 67 69 67 64 60 60 61 65 66 52 48 43 41 39 36 36 36
22 24 25 27 26 25 27 30 31 33 43 48 51 53 54 55 57 63 73 80 86 87 81 77 74 73 67 69 71 69 65 64 65 69 70 58 56 51 48 45 42 38 36
32 33 33 31 30 30 30 30 29 27 31 36 46 56 57 62 65 65 66 76 86 93 95 92 83 75 68 66 69 72 70 68 68 70 71 66 61 58 53 52 49 46 42
36 37 38 39 39 39 37 38 37 36 32 32 35 41 51 58 65 67 67 69 82 85 82 88 90 83 73 64 63 66 75 74 73 72 73 73 69 63 60 57 55 53 50
36 38 39 40 41 42 44 46 46 45 45 45 42 43 44 45 49 54 61 65 65 69 92 80 76 80 78 78 78 76 71 72 78 79 79 79 75 69 66 62 61 60 57
38 43 48 51 53 54 54 55 55 55 56 56 56 55 54 52 51 49 50 56 63 74 92 87 92 86 80 77 75 79 81 75 76 84 86 86 82 74 70 68 66 65 64
43 47 51 56 59 64 68 72 72 72 72 70 67 68 66 61 61 58 54 53 56 62 84 97 99 99 97 94 86 84 79 80 79 81 85 88 89 83 78 75 72 70 69
49 53 58 63 69 74 77 81 83 82 85 87 86 85 80 74 74 71 66 64 62 60 66 82 85 91 96 91 93 92 91 91 90 84 78 84 90 88 85 82 79 76 76
59 65 74 82 88 91 92 89 88 90 89 89 89 91 93 91 87 81 78 78 75 71 70 75 84 80 82 82 84 90 94 93 96 93 89 88 89 91 91 89 87 84 83
67 75 83 90 94 97 96 95 93 90 89 90 93 94 95 95 96 92 88 84 83 81 78 81 86 86 82 78 79 83 89 93 96 95 95 95 96 97 96 95 94 92 88
75 81 86 90 92 93 94 92 92 94 95 99 100 98 98 99 97 94 86 91 87 87 86 86 93 91 94 84 81 79 84 88 93 95 97 98 100 104 105 101 100 100 95
79 85 87 89 89 89 91 94 94 96 99 102 105 99 91 95 99 88 78 75 71 73 79 73 78 84 95 82 80 75 76 77 89 88 92 103 103 108 111 111 110 105 103
82 84 85 88 91 93 94 93 91 89 93 96 96 90 86 83 77 79 81 74 75 79 77 78 86 87 83 83 74 70 75 80 86 83 61 80 92 116 117 113 113 111 106
83 85 86 88 92 94 91 88 84 83 86 85 80 72 70 72 67 64 67 76 85 94 99 94 100 105 99 88 76 82 79 83 87 81 83 92 87 106 99 110 114 113 109
81 82 86 90 91 91 84 80 74 75 76 76 71 62 61 64 58 53 59 71 79 85 81 80 83 90 94 89 85 79 82 78 84 93 90 89 84 82 90 98 106 104 106
81 83 86 85 84 84 76 71 66 62 68 72 72 72 67 61 57 55 61 70 83 86 84 70 70 79 84 101 96 93 96 86 85 77 81 89 91 87 78 99 100 99 97
Wind_Direction_500mb
253 258 260 262 267 271 278 280 280 273 264 258 257 259 263 266 269 272 276 281 287 291 296 301 303 300 294 291 282 278 276 278 278 269 253 247 242 239 235 226 230 228 229
259 262 264 265 267 272 278 282 279 277 269 262 258 259 261 264 267 270 274 278 281 287 291 295 298 298 297 294 282 264 250 281 283 273 259 240 238 243 244 236 232 227 228
267 270 265 265 270 273 275 276 282 278 274 269 265 262 262 262 263 265 267 270 273 277 283 288 288 289 291 286 252 255 245 280 282 289 273 243 236 240 231 242 251 244 237
271 272 272 274 275 274 275 274 278 282 278 273 269 266 264 263 263 262 262 264 266 268 270 274 278 282 282 273 235 247 253 266 282 280 269 238 238 237 241 253 243 240 236
271 275 276 275 275 274 273 272 277 282 286 284 277 271 268 266 264 263 263 263 263 264 266 269 272 275 275 266 246 245 247 268 260 275 262 237 233 242 249 255 248 245 238
262 272 275 277 274 271 270 274 273 284 287 288 284 277 273 269 266 263 262 262 263 263 264 265 267 272 273 269 255 254 252 249 264 278 267 263 261 256 256 259 254 247 236
282 279 283 293 298 290 289 277 272 280 283 288 287 284 283 281 276 268 262 261 262 262 262 263 265 267 268 269 264 256 242 242 253 268 267 273 268 259 253 257 255 254 250
291 284 273 273 283 287 287 290 296 294 286 286 287 292 293 289 284 278 275 267 265 263 262 263 263 263 264 264 263 259 247 241 252 255 268 274 272 266 261 256 257 255 252
297 292 288 280 285 290 279 277 282 290 288 285 284 281 288 288 303 308 300 282 269 264 264 263 262 262 262 262 261 259 257 246 241 249 260 272 270 271 265 258 254 253 249
333 312 288 285 280 284 286 288 289 288 289 287 282 281 281 279 281 289 285 278 289 297 285 272 268 265 263 263 262 259 255 251 247 243 257 270 271 272 267 259 253 252 251
10 356 341 326 315 301 290 287 288 288 286 283 280 282 285 282 279 279 284 287 282 280 279 283 288 281 271 267 264 260 256 252 247 245 256 263 265 268 267 258 252 250 249
22 20 18 14 7 346 328 315 309 299 286 285 283 281 280 284 282 282 284 286 286 284 281 279 277 275 277 279 269 263 258 253 249 248 256 261 260 263 265 260 254 247 242
8 9 8 5 4 1 355 354 348 326 308 297 286 285 283 279 281 282 283 285 286 284 282 280 277 273 269 269 275 269 262 256 252 253 257 259 259 260 260 257 254 250 241
357 355 352 349 349 345 343 342 343 343 339 330 315 297 288 282 279 280 282 286 288 284 284 281 276 273 267 266 268 273 268 259 256 256 257 257 258 258 257 252 251 249 246
344 343 340 337 337 335 333 328 328 327 326 323 319 315 313 307 294 284 277 275 279 283 284 281 281 277 274 267 264 266 268 267 261 258 257 257 256 255 255 250 247 246 245
333 331 329 328 329 328 325 322 320 318 315 313 311 307 305 306 304 301 292 281 274 275 279 280 278 278 274 269 265 261 262 264 263 261 258 258 258 256 253 250 246 244 243
327 326 325 323 321 320 319 317 316 312 308 304 301 300 298 298 297 294 293 290 285 277 276 280 281 281 276 272 266 264 261 260 259 259 260 258 257 256 252 249 246 243 243
326 324 322 320 319 317 315 311 308 305 303 302 300 297 294 292 289 290 289 286 285 285 285 285 283 280 279 277 273 265 261 260 259 258 259 260 259 257 251 249 245 243 242
321 321 320 319 319 317 314 310 307 304 300 297 295 293 292 292 289 286 284 283 282 280 280 284 287 286 282 279 273 269 264 262 260 257 256 256 257 257 253 248 246 243 242
317 317 317 316 315 314 313 313 312 309 304 299 296 293 290 288 289 289 287 283 281 280 280 280 282 284 284 282 279 271 267 262 261 259 255 253 254 254 252 250 246 244 243
313 313 312 311 310 310 311 311 308 305 302 299 296 292 289 289 287 287 286 285 285 282 279 277 277 280 280 279 277 281 274 272 266 260 258 255 253 250 248 247 246 244 241
312 312 312 312 311 310 309 308 306 302 299 296 294 290 286 284 284 285 283 280 277 276 277 275 275 273 273 273 277 277 277 271 268 266 259 254 252 251 250 248 246 244 241
312 313 313 313 313 313 312 311 308 303 299 296 294 292 289 285 280 277 280 280 272 263 259 264 267 267 272 271 272 270 269 269 269 267 259 261 252 251 250 250 250 248 244
313 315 315 315 315 316 316 315 312 305 301 298 299 299 295 295 292 288 282 275 272 273 272 270 264 262 263 263 266 265 264 269 273 265 257 255 257 257 255 254 251 251 248
314 315 316 317 317 317 319 318 312 305 301 301 303 303 299 298 299 296 293 291 291 288 289 278 269 267 264 264 261 259 257 253 253 256 254 251 249 254 256 254 255 253 250
315 316 316 317 318 320 322 317 312 308 306 306 306 309 307 297 297 295 289 288 286 284 283 283 285 285 276 264 254 253 250 248 247 249 250 245 247 246 250 255 252 253 248
Wind_Speed_850mb
46 49 49 48 48 44 42 41 40 36 37 38 37 36 35 33 30 28 26 24 25 25 24 26 26 25 25 24 26 27 26 34 31 33 27 24 27 30 31 32 33 34 39
49 50 49 53 51 48 44 40 39 41 41 43 42 41 40 39 37 34 33 30 28 28 26 27 28 29 28 27 25 19 22 27 24 24 23 24 21 24 28 26 35 41 42
37 44 47 49 49 52 50 44 42 44 46 48 49 48 47 46 43 40 38 36 35 32 30 29 30 30 29 25 20 23 23 34 27 32 26 26 25 24 22 36 36 34 37
37 39 44 47 49 56 51 49 46 47 46 49 52 54 55 54 51 48 46 43 41 37 34 32 32 31 30 27 23 29 30 36 34 35 24 20 20 22 27 29 26 28 28
30 37 39 40 41 45 48 49 47 47 49 52 53 54 57 58 58 56 54 52 50 44 40 38 37 35 33 29 33 33 29 31 27 31 25 24 27 28 31 29 28 29 27
26 28 29 34 38 43 45 48 44 46 52 52 54 57 59 61 61 62 62 61 59 52 48 46 43 40 38 36 37 38 31 39 39 33 27 32 31 33 30 29 28 26 26
25 24 19 19 22 27 29 43 42 42 46 51 54 59 65 66 67 67 68 67 66 62 58 55 51 47 44 43 43 42 31 38 43 36 30 30 33 32 31 30 27 26 25
21 21 23 25 24 27 27 33 39 42 43 44 52 58 62 63 66 65 69 76 73 69 67 62 58 55 51 50 49 47 43 38 44 37 37 27 28 31 33 33 33 30 28
20 24 24 26 28 29 34 35 36 37 43 45 47 49 27 19 35 30 30 47 66 76 75 71 67 62 59 57 54 53 51 51 48 46 47 33 32 33 34 34 34 33 31
19 18 20 25 30 34 35 38 37 39 39 43 48 53 57 64 70 68 61 54 48 45 53 68 72 69 65 63 60 57 56 55 56 58 63 47 40 37 36 35 34 33 33
25 23 23 23 24 27 31 36 39 40 43 46 46 47 53 59 63 72 81 77 73 70 69 65 59 61 67 69 67 64 60 60 61 65 66 52 48 43 41 39 36 36 36
22 24 25 27 26 25 27 30 31 33 43 48 51 53 54 55 57 63 73 80 86 87 81 77 74 73 67 69 71 69 65 64 65 69 70 58 56 51 48 45 42 38 36
32 33 33 31 30 30 30 30 29 27 31 36 46 56 57 62 65 65 66 76 86 93 95 92 83 75 68 66 69 72 70 68 68 70 71 66 61 58 53 52 49 46 42
36 37 38 39 39 39 37 38 37 36 32 32 35 41 51 58 65 67 67 69 82 85 82 88 90 83 73 64 63 66 75 74 73 72 73 73 69 63 60 57 55 53 50
36 38 39 40 41 42 44 46 46 45 45 45 42 43 44 45 49 54 61 65 65 69 92 80 76 80 78 78 78 76 71 72 78 79 79 79 75 69 66 62 61 60 57
38 43 48 51 53 54 54 55 55 55 56 56 56 55 54 52 51 49 50 56 63 74 92 87 92 86 80 77 75 79 81 75 76 84 86 86 82 74 70 68 66 65 64
43 47 51 56 59 64 68 72 72 72 72 70 67 68 66 61 61 58 54 53 56 62 84 97 99 99 97 94 86 84 79 80 79 81 85 88 89 83 78 75 72 70 69
49 53 58 63 69 74 77 81 83 82 85 87 86 85 80 74 74 71 66 64 62 60 66 82 85 91 96 91 93 92 91 91 90 84 78 84 90 88 85 82 79 76 76
59 65 74 82 88 91 92 89 88 90 89 89 89 91 93 91 87 81 78 78 75 71 70 75 84 80 82 82 84 90 94 93 96 93 89 88 89 91 91 89 87 84 83
67 75 83 90 94 97 96 95 93 90 89 90 93 94 95 95 96 92 88 84 83 81 78 81 86 86 82 78 79 83 89 93 96 95 95 95 96 97 96 95 94 92 88
75 81 86 90 92 93 94 92 92 94 95 99 100 98 98 99 97 94 86 91 87 87 86 86 93 91 94 84 81 79 84 88 93 95 97 98 100 104 105 101 100 100 95
79 85 87 89 89 89 91 94 94 96 99 102 105 99 91 95 99 88 78 75 71 73 79 73 78 84 95 82 80 75 76 77 89 88 92 103 103 108 111 111 110 105 103
82 84 85 88 91 93 94 93 91 89 93 96 96 90 86 83 77 79 81 74 75 79 77 78 86 87 83 83 74 70 75 80 86 83 61 80 92 116 117 113 113 111 106
83 85 86 88 92 94 91 88 84 83 86 85 80 72 70 72 67 64 67 76 85 94 99 94 100 105 99 88 76 82 79 83 87 81 83 92 87 106 99 110 114 113 109
81 82 86 90 91 91 84 80 74 75 76 76 71 62 61 64 58 53 59 71 79 85 81 80 83 90 94 89 85 79 82 78 84 93 90 89 84 82 90 98 106 104 106
81 83 86 85 84 84 76 71 66 62 68 72 72 72 67 61 57 55 61 70 83 86 84 70 70 79 84 101 96 93 96 86 85 77 81 89 91 87 78 99 100 99 97
Wind_Direction_850mb
253 258 260 262 267 271 278 280 280 273 264 258 257 259 263 266 269 272 276 281 287 291 296 301 303 300 294 291 282 278 276 278 278 269 253 247 242 239 235 226 230 228 229
259 262 264 265 267 272 278 282 279 277 269 262 258 259 261 264 267 270 274 278 281 287 291 295 298 298 297 294 282 264 250 281 283 273 259 240 238 243 244 236 232 227 228
267 270 265 265 270 273 275 276 282 278 274 269 265 262 262 262 263 265 267 270 273 277 283 288 288 289 291 286 252 255 245 280 282 289 273 243 236 240 231 242 251 244 237
271 272 272 274 275 274 275 274 278 282 278 273 269 266 264 263 263 262 262 264 266 268 270 274 278 282 282 273 235 247 253 266 282 280 269 238 238 237 241 253 243 240 236
271 275 276 275 275 274 273 272 277 282 286 284 277 271 268 266 264 263 263 263 263 264 266 269 272 275 275 266 246 245 247 268 260 275 262 237 233 242 249 255 248 245 238
262 272 275 277 274 271 270 274 273 284 287 288 284 277 273 269 266 263 262 262 263 263 264 265 267 272 273 269 255 254 252 249 264 278 267 263 261 256 256 259 254 247 236
282 279 283 293 298 290 289 277 272 280 283 288 287 284 283 281 276 268 262 261 262 262 262 263 265 267 268 269 264 256 242 242 253 268 267 273 268 259 253 257 255 254 250
291 284 273 273 283 287 287 290 296 294 286 286 287 292 293 289 284 278 275 267 265 263 262 263 263 263 264 264 263 259 247 241 252 255 268 274 272 266 261 256 257 255 252
297 292 288 280 285 290 279 277 282 290 288 285 284 281 288 288 303 308 300 282 269 264 264 263 262 262 262 262 261 259 257 246 241 249 260 272 270 271 265 258 254 253 249
333 312 288 285 280 284 286 288 289 288 289 287 282 281 281 279 281 289 285 278 289 297 285 272 268 265 263 263 262 259 255 251 247 243 257 270 271 272 267 259 253 252 251
10 356 341 326 315 301 290 287 288 288 286 283 280 282 285 282 279 279 284 287 282 280 279 283 288 281 271 267 264 260 256 252 247 245 256 263 265 268 267 258 252 250 249
22 20 18 14 7 346 328 315 309 299 286 285 283 281 280 284 282 282 284 286 286 284 281 279 277 275 277 279 269 263 258 253 249 248 256 261 260 263 265 260 254 247 242
8 9 8 5 4 1 355 354 348 326 308 297 286 285 283 279 281 282 283 285 286 284 282 280 277 273 269 269 275 269 262 256 252 253 257 259 259 260 260 257 254 250 241
357 355 352 349 349 345 343 342 343 343 339 330 315 297 288 282 279 280 282 286 288 284 284 281 276 273 267 266 268 273 268 259 256 256 257 257 258 258 257 252 251 249 246
344 343 340 337 337 335 333 328 328 327 326 323 319 315 313 307 294 284 277 275 279 283 284 281 281 277 274 267 264 266 268 267 261 258 257 257 256 255 255 250 247 246 245
333 331 329 328 329 328 325 322 320 318 315 313 311 307 305 306 304 301 292 281 274 275 279 280 278 278 274 269 265 261 262 264 263 261 258 258 258 256 253 250 246 244 243
327 326 325 323 321 320 319 317 316 312 308 304 301 300 298 298 297 294 293 290 285 277 276 280 281 281 276 272 266 264 261 260 259 259 260 258 257 256 252 249 246 243 243
326 324 322 320 319 317 315 311 308 305 303 302 300 297 294 292 289 290 289 286 285 285 285 285 283 280 279 277 273 265 261 260 259 258 259 260 259 257 251 249 245 243 242
321 321 320 319 319 317 314 310 307 304 300 297 295 293 292 292 289 286 284 283 282 280 280 284 287 286 282 279 273 269 264 262 260 257 256 256 257 257 253 248 246 243 242
317 317 317 316 315 314 313 313 312 309 304 299 296 293 290 288 289 289 287 283 281 280 280 280 282 284 284 282 279 271 267 262 261 259 255 253 254 254 252 250 246 244 243
313 313 312 311 310 310 311 311 308 305 302 299 296 292 289 289 287 287 286 285 285 282 279 277 277 280 280 279 277 281 274 272 266 260 258 255 253 250 248 247 246 244 241
312 312 312 312 311 310 309 308 306 302 299 296 294 290 286 284 284 285 283 280 277 276 277 275 275 273 273 273 277 277 277 271 268 266 259 254 252 251 250 248 246 244 241
312 313 313 313 313 313 312 311 308 303 299 296 294 292 289 285 280 277 280 280 272 263 259 264 267 267 272 271 272 270 269 269 269 267 259 261 252 251 250 250 250 248 244
313 315 315 315 315 316 316 315 312 305 301 298 299 299 295 295 292 288 282 275 272 273 272 270 264 262 263 263 266 265 264 269 273 265 257 255 257 257 255 254 251 251 248
314 315 316 317 317 317 319 318 312 305 301 301 303 303 299 298 299 296 293 291 291 288 289 278 269 267 264 264 261 259 257 253 253 256 254 251 249 254 256 254 255 253 250
315 316 316 317 318 320 322 317 312 308 306 306 306 309 307 297 297 295 289 288 286 284 283 283 285 285 276 264 254 253 250 248 247 249 250 245 247 246 250 255 252 253 248